When you browse on this site, cookies collect data to enhance your experience and personalize the content and advertising you see.
Visit our Privacy Policy to learn more. By continuing to use the site, you agree to this use of cookies and data.
  • In Spain
  • List of Countries
  • For 7 days
  • Water Temperature
  • Weather Map
  • Weather Widgets
  • user-avatar
    Login

    Hourly Weather Leigh

    Today, 3 April, Friday

    Time Temperature Precipitation Wind Pressure Humidity
    00:00 +4°C° 0 mm 3 mps 759 mmHg 77%
    01:00 +4°C° 0 mm 3 mps 759 mmHg 76%
    02:00 +4°C° 0 mm 3 mps 759 mmHg 76%
    03:00 +5°C° 0 mm 2 mps 759 mmHg 75%
    04:00 +4°C° 0 mm 2 mps 759 mmHg 76%
    05:00 +4°C° 0 mm 2 mps 760 mmHg 78%
    06:00 +4°C° 0 mm 2 mps 760 mmHg 79%
    07:00 +5°C° 0 mm 2 mps 760 mmHg 74%
    08:00 +5°C° 0 mm 3 mps 760 mmHg 70%
    09:00 +6°C° 0 mm 4 mps 760 mmHg 65%
    10:00 +7°C° 0 mm 4 mps 760 mmHg 62%
    11:00 +8°C° 0 mm 4 mps 760 mmHg 60%
    12:00 +8°C° 0 mm 5 mps 760 mmHg 58%
    13:00 +8°C° 0 mm 5 mps 760 mmHg 57%
    14:00 +9°C° 0 mm 5 mps 760 mmHg 57%
    15:00 +9°C° 0 mm 5 mps 760 mmHg 57%
    16:00 +8°C° 0 mm 4 mps 760 mmHg 61%
    17:00 +9°C° 0 mm 3 mps 760 mmHg 66%
    18:00 +8°C° 0 mm 3 mps 760 mmHg 70%
    19:00 +7°C° 0 mm 2 mps 760 mmHg 73%
    20:00 +7°C° 0 mm 2 mps 760 mmHg 76%
    21:00 +7°C° 0 mm 1 mps 761 mmHg 79%
    22:00 +7°C° 0 mm 1 mps 761 mmHg 80%
    23:00 +6°C° 0 mm 2 mps 761 mmHg 81%

    Tomorrow, 4 April, Saturday

    Time Temperature Precipitation Wind Pressure Humidity
    00:00 +5°C° 0 mm 2 mps 761 mmHg 83%
    01:00 +5°C° 0 mm 2 mps 761 mmHg 83%
    02:00 +5°C° 0 mm 2 mps 761 mmHg 84%
    03:00 +4°C° 0 mm 2 mps 761 mmHg 84%
    04:00 +4°C° 0 mm 2 mps 761 mmHg 84%
    05:00 +4°C° 0 mm 2 mps 761 mmHg 84%
    06:00 +4°C° 0 mm 2 mps 761 mmHg 84%
    07:00 +5°C° 0 mm 3 mps 761 mmHg 79%
    08:00 +7°C° 0 mm 3 mps 761 mmHg 75%
    09:00 +7°C° 0 mm 4 mps 761 mmHg 70%
    10:00 +9°C° 0 mm 5 mps 761 mmHg 66%
    11:00 +10°C° 0 mm 5 mps 761 mmHg 62%
    12:00 +11°C° 0 mm 6 mps 761 mmHg 59%
    13:00 +12°C° 0 mm 5 mps 760 mmHg 61%
    14:00 +12°C° 0 mm 5 mps 760 mmHg 62%
    15:00 +12°C° 0 mm 5 mps 760 mmHg 64%
    16:00 +12°C° 0 mm 5 mps 760 mmHg 66%
    17:00 +10°C° 0 mm 5 mps 759 mmHg 68%
    18:00 +11°C° 0 mm 4 mps 759 mmHg 70%
    19:00 +10°C° 0 mm 4 mps 759 mmHg 73%
    20:00 +10°C° 0 mm 4 mps 759 mmHg 75%
    21:00 +8°C° 0 mm 4 mps 760 mmHg 77%
    22:00 +7°C° 0 mm 4 mps 759 mmHg 79%
    23:00 +7°C° 0 mm 4 mps 759 mmHg 80%

    Day after tomorrow, 5 April, Sunday

    Time Temperature Precipitation Wind Pressure Humidity
    00:00 +6°C° 0 mm 4 mps 759 mmHg 82%
    01:00 +6°C° 0 mm 4 mps 759 mmHg 83%
    02:00 +6°C° 0 mm 4 mps 758 mmHg 85%
    03:00 +6°C° 0 mm 4 mps 758 mmHg 86%
    04:00 +6°C° 0 mm 5 mps 757 mmHg 86%
    05:00 +6°C° 0 mm 5 mps 757 mmHg 86%
    06:00 +6°C° 0 mm 5 mps 756 mmHg 85%
    07:00 +7°C° 0 mm 6 mps 756 mmHg 81%
    08:00 +9°C° 0 mm 6 mps 755 mmHg 76%
    09:00 +10°C° 0 mm 7 mps 755 mmHg 71%
    10:00 +12°C° 0 mm 7 mps 754 mmHg 68%
    11:00 +13°C° 0 mm 8 mps 754 mmHg 65%
    12:00 +16°C° 0 mm 8 mps 753 mmHg 61%
    13:00 +16°C° 0 mm 8 mps 753 mmHg 61%
    14:00 +17°C° 0 mm 8 mps 752 mmHg 62%
    15:00 +17°C° 0 mm 8 mps 751 mmHg 62%
    16:00 +16°C° 0 mm 8 mps 751 mmHg 66%
    17:00 +15°C° 0 mm 7 mps 751 mmHg 70%
    18:00 +15°C° 0 mm 7 mps 750 mmHg 74%
    19:00 +14°C° 0 mm 7 mps 750 mmHg 75%
    20:00 +13°C° 0 mm 8 mps 750 mmHg 76%
    21:00 +12°C° 0 mm 8 mps 750 mmHg 76%
    22:00 +12°C° 0 mm 7 mps 750 mmHg 78%
    23:00 +12°C° 0 mm 7 mps 750 mmHg 80%

    6 April, Monday

    Time Temperature Precipitation Wind Pressure Humidity
    00:00 +13°C° 0 mm 6 mps 750 mmHg 82%
    01:00 +11°C° 0.1 mm 6 mps 750 mmHg 82%
    02:00 +12°C° 0.1 mm 5 mps 749 mmHg 83%
    03:00 +12°C° 0.1 mm 5 mps 749 mmHg 83%
    04:00 +12°C° 0.1 mm 5 mps 749 mmHg 82%
    05:00 +10°C° 0.1 mm 5 mps 750 mmHg 80%
    06:00 +10°C° 0.1 mm 5 mps 750 mmHg 79%
    07:00 +10°C° 0 mm 6 mps 751 mmHg 76%
    08:00 +10°C° 0 mm 6 mps 751 mmHg 73%
    09:00 +11°C° 0 mm 6 mps 752 mmHg 71%
    10:00 +11°C° 0.1 mm 7 mps 753 mmHg 65%
    11:00 +12°C° 0.1 mm 7 mps 754 mmHg 59%
    12:00 +12°C° 0.1 mm 8 mps 754 mmHg 54%
    13:00 +12°C° 0 mm 7 mps 755 mmHg 54%
    14:00 +12°C° 0 mm 7 mps 756 mmHg 54%
    15:00 +11°C° 0 mm 6 mps 757 mmHg 54%
    16:00 +11°C° 0 mm 6 mps 758 mmHg 57%
    17:00 +10°C° 0 mm 5 mps 759 mmHg 59%
    18:00 +11°C° 0 mm 4 mps 760 mmHg 62%
    19:00 +10°C° 0 mm 4 mps 762 mmHg 64%
    20:00 +9°C° 0 mm 3 mps 763 mmHg 66%
    21:00 +8°C° 0 mm 3 mps 764 mmHg 69%
    22:00 +7°C° 0 mm 2 mps 765 mmHg 71%
    23:00 +7°C° 0 mm 2 mps 766 mmHg 74%

    7 April, Tuesday

    Time Temperature Precipitation Wind Pressure Humidity
    00:00 +7°C° 0 mm 1 mps 767 mmHg 77%
    01:00 +7°C° 0 mm 1 mps 768 mmHg 79%
    02:00 +7°C° 0 mm 1 mps 768 mmHg 80%
    03:00 +6°C° 0 mm 1 mps 769 mmHg 82%
    04:00 +6°C° 0 mm 1 mps 769 mmHg 82%
    05:00 +6°C° 0 mm 1 mps 770 mmHg 82%
    06:00 +6°C° 0 mm 1 mps 770 mmHg 82%
    07:00 +6°C° 0 mm 2 mps 771 mmHg 75%
    08:00 +8°C° 0 mm 2 mps 771 mmHg 68%
    09:00 +10°C° 0 mm 3 mps 771 mmHg 62%
    10:00 +11°C° 0 mm 3 mps 771 mmHg 59%
    11:00 +12°C° 0 mm 4 mps 771 mmHg 55%
    12:00 +13°C° 0 mm 5 mps 771 mmHg 52%
    13:00 +14°C° 0 mm 5 mps 771 mmHg 53%
    14:00 +14°C° 0 mm 5 mps 771 mmHg 53%
    15:00 +15°C° 0 mm 5 mps 771 mmHg 53%
    16:00 +14°C° 0 mm 4 mps 771 mmHg 57%
    17:00 +13°C° 0 mm 4 mps 771 mmHg 61%
    18:00 +12°C° 0 mm 3 mps 771 mmHg 65%
    19:00 +11°C° 0 mm 3 mps 771 mmHg 68%
    20:00 +10°C° 0 mm 3 mps 771 mmHg 70%
    21:00 +9°C° 0 mm 3 mps 771 mmHg 73%
    22:00 +9°C° 0 mm 3 mps 771 mmHg 73%
    23:00 +8°C° 0 mm 3 mps 772 mmHg 72%

    8 April, Wednesday

    Time Temperature Precipitation Wind Pressure Humidity
    00:00 +7°C° 0 mm 4 mps 772 mmHg 71%
    01:00 +6°C° 0 mm 4 mps 771 mmHg 72%
    02:00 +6°C° 0 mm 4 mps 771 mmHg 74%
    03:00 +5°C° 0 mm 4 mps 770 mmHg 75%
    04:00 +5°C° 0 mm 4 mps 770 mmHg 74%
    05:00 +5°C° 0 mm 4 mps 770 mmHg 73%
    06:00 +4°C° 0 mm 4 mps 770 mmHg 72%
    07:00 +6°C° 0 mm 4 mps 770 mmHg 70%
    08:00 +8°C° 0 mm 5 mps 769 mmHg 69%
    09:00 +10°C° 0 mm 5 mps 769 mmHg 67%
    10:00 +11°C° 0 mm 6 mps 768 mmHg 65%
    11:00 +14°C° 0 mm 6 mps 768 mmHg 63%
    12:00 +15°C° 0 mm 6 mps 768 mmHg 60%
    13:00 +16°C° 0 mm 6 mps 767 mmHg 61%
    14:00 +16°C° 0 mm 6 mps 767 mmHg 62%
    15:00 +17°C° 0 mm 6 mps 766 mmHg 62%
    16:00 +16°C° 0 mm 6 mps 766 mmHg 65%
    17:00 +15°C° 0 mm 5 mps 766 mmHg 68%
    18:00 +15°C° 0 mm 4 mps 765 mmHg 70%
    19:00 +14°C° 0 mm 4 mps 765 mmHg 72%
    20:00 +12°C° 0 mm 4 mps 765 mmHg 75%
    21:00 +11°C° 0 mm 4 mps 766 mmHg 77%
    22:00 +11°C° 0 mm 4 mps 765 mmHg 76%
    23:00 +11°C° 0 mm 4 mps 765 mmHg 76%
    Show more